QPF
0.00 0.00 0.00 0.00 0.00 0.00 0.00 0.00 0.00 0.00 0.00 0.00 0.00 0.00 0.00 0.00 0.00 0.00 0.00 0.00 0.00 0.00 0.00 0.00 0.00 0.00 0.00 0.00 0.00 0.00 0.00 0.00 0.00 0.00 0.00 0.00 0.00 0.00 0.00 0.00 0.00 0.00 0.00 0.00 0.00
0.00 0.00 0.00 0.00 0.00 0.00 0.00 0.00 0.00 0.00 0.00 0.00 0.00 0.00 0.00 0.00 0.00 0.00 0.00 0.00 0.00 0.00 0.00 0.00 0.00 0.00 0.00 0.00 0.00 0.00 0.00 0.00 0.00 0.00 0.00 0.00 0.00 0.00 0.00 0.00 0.00 0.00 0.00 0.00 0.00
0.00 0.00 0.00 0.00 0.00 0.00 0.00 0.00 0.00 0.00 0.00 0.00 0.00 0.00 0.00 0.00 0.00 0.00 0.00 0.00 0.00 0.00 0.00 0.00 0.00 0.00 0.00 0.00 0.00 0.00 0.00 0.00 0.00 0.00 0.00 0.00 0.00 0.00 0.00 0.00 0.00 0.00 0.00 0.00 0.00
0.00 0.00 0.00 0.00 0.00 0.00 0.00 0.00 0.00 0.00 0.00 0.00 0.00 0.00 0.00 0.00 0.00 0.00 0.00 0.00 0.00 0.00 0.00 0.00 0.00 0.00 0.00 0.00 0.00 0.00 0.00 0.00 0.00 0.00 0.00 0.00 0.00 0.00 0.00 0.00 0.00 0.00 0.00 0.00 0.00
0.00 0.00 0.00 0.00 0.00 0.00 0.00 0.00 0.00 0.00 0.00 0.00 0.00 0.00 0.00 0.00 0.00 0.00 0.00 0.00 0.00 0.00 0.00 0.00 0.00 0.00 0.00 0.00 0.00 0.00 0.00 0.00 0.00 0.00 0.00 0.00 0.00 0.00 0.00 0.00 0.00 0.00 0.00 0.00 0.00
0.00 0.00 0.00 0.00 0.00 0.00 0.00 0.00 0.00 0.00 0.00 0.00 0.00 0.00 0.00 0.00 0.00 0.00 0.00 0.00 0.00 0.00 0.00 0.00 0.00 0.00 0.00 0.00 0.00 0.00 0.00 0.00 0.00 0.00 0.00 0.00 0.00 0.00 0.00 0.00 0.00 0.00 0.00 0.00 0.00
0.00 0.00 0.00 0.00 0.00 0.00 0.00 0.00 0.00 0.00 0.00 0.00 0.00 0.00 0.00 0.00 0.00 0.00 0.00 0.00 0.00 0.00 0.00 0.00 0.00 0.00 0.00 0.00 0.00 0.00 0.00 0.00 0.00 0.00 0.00 0.00 0.00 0.00 0.00 0.00 0.00 0.00 0.00 0.00 0.00
0.00 0.00 0.00 0.00 0.00 0.00 0.00 0.00 0.00 0.00 0.00 0.00 0.00 0.00 0.00 0.00 0.00 0.00 0.00 0.00 0.00 0.00 0.00 0.00 0.00 0.00 0.00 0.00 0.00 0.00 0.00 0.00 0.00 0.00 0.00 0.00 0.00 0.00 0.00 0.00 0.00 0.00 0.00 0.00 0.00
0.00 0.00 0.00 0.00 0.00 0.00 0.00 0.00 0.00 0.00 0.00 0.00 0.00 0.00 0.00 0.00 0.00 0.00 0.00 0.00 0.00 0.00 0.00 0.00 0.00 0.00 0.00 0.00 0.00 0.00 0.00 0.00 0.00 0.00 0.00 0.00 0.00 0.00 0.00 0.00 0.00 0.00 0.00 0.00 0.00
0.00 0.00 0.00 0.00 0.00 0.00 0.00 0.00 0.00 0.00 0.00 0.00 0.00 0.00 0.00 0.00 0.00 0.00 0.00 0.00 0.00 0.00 0.00 0.00 0.00 0.00 0.00 0.00 0.00 0.00 0.00 0.00 0.00 0.00 0.00 0.00 0.00 0.00 0.00 0.00 0.00 0.00 0.00 0.00 0.00
0.01 0.01 0.00 0.00 0.00 0.00 0.00 0.00 0.00 0.00 0.00 0.00 0.00 0.00 0.00 0.00 0.00 0.00 0.00 0.00 0.00 0.00 0.00 0.00 0.00 0.00 0.00 0.00 0.00 0.00 0.00 0.00 0.00 0.00 0.00 0.00 0.00 0.00 0.00 0.00 0.00 0.00 0.00 0.00 0.00
0.00 0.00 0.00 0.00 0.00 0.00 0.00 0.00 0.00 0.00 0.00 0.00 0.00 0.00 0.00 0.00 0.00 0.00 0.00 0.00 0.00 0.00 0.00 0.00 0.00 0.00 0.00 0.00 0.00 0.00 0.00 0.00 0.00 0.00 0.00 0.00 0.00 0.00 0.00 0.00 0.00 0.00 0.00 0.00 0.00
0.00 0.00 0.00 0.00 0.00 0.00 0.00 0.00 0.00 0.00 0.00 0.00 0.00 0.00 0.00 0.00 0.00 0.00 0.00 0.00 0.00 0.00 0.00 0.00 0.00 0.00 0.00 0.00 0.00 0.00 0.00 0.00 0.00 0.00 0.00 0.00 0.00 0.00 0.00 0.00 0.00 0.00 0.00 0.00 0.00
0.00 0.00 0.00 0.00 0.00 0.00 0.00 0.00 0.00 0.00 0.00 0.00 0.00 0.00 0.00 0.00 0.00 0.00 0.00 0.00 0.00 0.00 0.00 0.00 0.00 0.00 0.00 0.00 0.00 0.00 0.00 0.00 0.00 0.00 0.00 0.00 0.00 0.00 0.00 0.00 0.00 0.00 0.00 0.00 0.00
0.00 0.00 0.01 0.01 0.00 0.00 0.00 0.00 0.00 0.00 0.00 0.00 0.00 0.00 0.00 0.00 0.00 0.00 0.00 0.00 0.00 0.00 0.00 0.00 0.00 0.00 0.00 0.00 0.00 0.00 0.00 0.00 0.00 0.00 0.00 0.00 0.00 0.00 0.00 0.00 0.00 0.00 0.00 0.00 0.00
0.00 0.00 0.01 0.00 0.00 0.00 0.00 0.00 0.00 0.00 0.00 0.00 0.00 0.00 0.00 0.00 0.00 0.00 0.00 0.00 0.00 0.00 0.00 0.00 0.00 0.00 0.00 0.00 0.00 0.00 0.00 0.00 0.00 0.00 0.00 0.00 0.00 0.00 0.00 0.00 0.00 0.00 0.00 0.00 0.00
0.00 0.00 0.00 0.00 0.00 0.00 0.00 0.00 0.00 0.00 0.00 0.00 0.00 0.00 0.00 0.00 0.00 0.00 0.00 0.00 0.00 0.00 0.00 0.00 0.00 0.00 0.00 0.00 0.00 0.00 0.00 0.00 0.00 0.00 0.00 0.00 0.00 0.00 0.00 0.00 0.00 0.00 0.00 0.00 0.00
0.00 0.00 0.00 0.00 0.00 0.00 0.00 0.00 0.00 0.00 0.00 0.00 0.00 0.00 0.00 0.00 0.00 0.00 0.00 0.00 0.00 0.00 0.00 0.00 0.00 0.00 0.00 0.00 0.00 0.00 0.00 0.00 0.00 0.00 0.00 0.00 0.00 0.00 0.00 0.00 0.00 0.00 0.00 0.00 0.00
0.00 0.00 0.00 0.00 0.00 0.00 0.00 0.00 0.00 0.00 0.00 0.00 0.00 0.00 0.00 0.00 0.00 0.00 0.00 0.00 0.00 0.00 0.00 0.00 0.00 0.00 0.00 0.00 0.00 0.00 0.00 0.00 0.00 0.00 0.00 0.00 0.00 0.00 0.00 0.00 0.00 0.00 0.00 0.00 0.00
0.00 0.00 0.00 0.00 0.00 0.02 0.01 0.00 0.00 0.00 0.00 0.00 0.00 0.00 0.00 0.00 0.00 0.00 0.00 0.00 0.00 0.00 0.00 0.00 0.00 0.00 0.00 0.00 0.00 0.00 0.00 0.00 0.00 0.00 0.00 0.00 0.00 0.00 0.00 0.00 0.00 0.00 0.00 0.00 0.00
0.00 0.00 0.00 0.00 0.01 0.01 0.00 0.00 0.00 0.00 0.00 0.00 0.01 0.00 0.00 0.00 0.00 0.00 0.00 0.00 0.00 0.00 0.00 0.00 0.00 0.00 0.00 0.00 0.00 0.00 0.00 0.00 0.00 0.00 0.00 0.00 0.00 0.00 0.00 0.00 0.00 0.00 0.00 0.00 0.00
0.00 0.00 0.00 0.00 0.01 0.00 0.00 0.00 0.00 0.00 0.00 0.00 0.01 0.01 0.00 0.00 0.00 0.00 0.00 0.00 0.00 0.00 0.00 0.00 0.00 0.00 0.00 0.00 0.00 0.00 0.00 0.00 0.00 0.00 0.00 0.00 0.00 0.00 0.00 0.00 0.00 0.00 0.00 0.00 0.00
0.00 0.00 0.00 0.00 0.00 0.00 0.00 0.00 0.00 0.00 0.00 0.00 0.02 0.02 0.01 0.00 0.00 0.00 0.00 0.00 0.00 0.00 0.00 0.00 0.00 0.00 0.00 0.00 0.00 0.00 0.00 0.00 0.00 0.00 0.00 0.00 0.00 0.00 0.00 0.00 0.00 0.00 0.00 0.00 0.00
0.00 0.00 0.00 0.00 0.00 0.00 0.00 0.00 0.00 0.00 0.00 0.00 0.00 0.00 0.00 0.00 0.00 0.00 0.00 0.00 0.00 0.00 0.00 0.01 0.00 0.00 0.00 0.00 0.00 0.00 0.00 0.00 0.00 0.00 0.00 0.00 0.00 0.00 0.00 0.00 0.00 0.00 0.00 0.00 0.00
0.00 0.00 0.00 0.00 0.00 0.00 0.00 0.00 0.00 0.00 0.00 0.00 0.00 0.00 0.02 0.00 0.00 0.00 0.01 0.00 0.00 0.00 0.00 0.00 0.00 0.00 0.00 0.00 0.00 0.00 0.00 0.00 0.00 0.00 0.00 0.00 0.00 0.00 0.00 0.00 0.00 0.00 0.00 0.00 0.00
0.00 0.00 0.00 0.00 0.00 0.00 0.00 0.00 0.00 0.00 0.00 0.00 0.01 0.00 0.01 0.01 0.00 0.00 0.00 0.01 0.01 0.00 0.00 0.00 0.00 0.00 0.00 0.00 0.00 0.00 0.00 0.00 0.00 0.00 0.00 0.00 0.00 0.00 0.00 0.00 0.00 0.00 0.00 0.00 0.00
0.00 0.00 0.01 0.00 0.00 0.00 0.00 0.00 0.00 0.00 0.00 0.00 0.00 0.01 0.00 0.00 0.00 0.00 0.00 0.00 0.00 0.00 0.01 0.00 0.00 0.00 0.00 0.00 0.00 0.00 0.00 0.00 0.00 0.00 0.00 0.00 0.00 0.00 0.00 0.00 0.00 0.00 0.00 0.00 0.00
MSLP
1020.44 1020.32 1020.15 1020.07 1019.67 1019.39 1019.23 1018.93 1018.68 1018.44 1018.31 1017.97 1017.43 1017.01 1017.06 1016.36 1015.64 1014.13 1012.69 1011.25 1011.11 1011.30 1011.57 1011.90 1011.60 1011.04 1011.66 1011.46 1011.56 1012.07 1011.41 1009.91 1009.06 1008.59 1007.40 1007.58 1007.45 1007.67 1007.52 1007.08 1006.93 1006.57 1006.31 1006.46 1007.09
1020.61 1020.31 1020.15 1019.72 1019.51 1019.39 1019.21 1018.75 1018.44 1018.24 1017.83 1017.65 1017.31 1017.09 1016.79 1015.90 1015.08 1013.04 1010.67 1010.42 1010.35 1011.01 1011.03 1011.14 1011.04 1011.22 1010.97 1011.16 1010.94 1011.12 1010.39 1009.27 1008.14 1007.75 1007.45 1007.67 1007.55 1007.77 1007.73 1006.96 1005.97 1006.10 1006.12 1006.51 1007.02
1020.50 1020.12 1019.57 1019.19 1019.30 1019.03 1018.80 1018.58 1018.37 1017.98 1017.73 1017.43 1017.10 1016.87 1016.36 1015.83 1014.37 1011.00 1010.08 1010.05 1010.24 1010.66 1010.42 1010.28 1010.72 1010.40 1010.38 1010.56 1009.97 1009.94 1009.28 1008.37 1008.07 1007.84 1008.00 1007.56 1007.31 1007.71 1007.35 1006.30 1005.35 1005.69 1005.52 1005.60 1006.30
1020.62 1020.21 1019.91 1019.67 1018.95 1018.55 1018.57 1018.14 1018.03 1017.67 1017.52 1017.20 1016.69 1016.65 1016.08 1015.63 1013.21 1010.14 1010.28 1010.24 1009.82 1009.84 1010.32 1010.26 1010.55 1010.19 1009.73 1009.35 1008.70 1008.82 1008.89 1008.60 1007.60 1008.04 1008.11 1007.56 1007.47 1007.14 1007.26 1005.98 1005.41 1005.51 1005.50 1005.33 1005.38
1020.61 1020.26 1019.94 1019.56 1019.34 1018.77 1018.10 1017.98 1017.48 1017.42 1017.07 1016.96 1016.72 1016.51 1015.85 1014.98 1012.19 1010.34 1010.28 1010.50 1009.95 1010.13 1009.88 1009.53 1009.39 1009.07 1008.62 1008.42 1008.84 1007.62 1007.90 1008.17 1007.94 1007.91 1007.94 1007.70 1007.23 1006.84 1006.23 1005.45 1005.17 1005.19 1004.90 1004.77 1004.68
1020.52 1020.15 1019.79 1019.41 1019.00 1018.60 1018.24 1017.60 1016.95 1016.76 1016.73 1016.59 1016.56 1016.52 1016.17 1014.20 1011.52 1010.98 1010.91 1010.77 1010.41 1010.28 1010.05 1009.90 1009.00 1008.57 1008.43 1008.09 1007.58 1006.81 1007.63 1007.67 1007.75 1007.53 1007.18 1007.05 1006.30 1006.89 1005.59 1004.94 1004.28 1004.46 1004.23 1003.87 1003.75
1020.32 1019.95 1019.54 1019.09 1018.66 1018.23 1017.78 1017.36 1017.14 1016.62 1016.10 1016.22 1016.21 1016.14 1014.89 1012.28 1011.34 1011.11 1011.22 1011.18 1011.15 1010.84 1010.17 1009.74 1009.39 1009.27 1008.52 1007.89 1007.56 1007.43 1007.48 1007.59 1007.77 1007.17 1006.74 1006.69 1005.94 1005.44 1004.70 1004.33 1004.35 1003.92 1003.39 1002.99 1002.64
1019.92 1019.58 1019.19 1018.73 1018.25 1017.74 1017.23 1016.84 1016.44 1015.84 1015.36 1015.42 1015.47 1015.48 1013.36 1011.85 1011.43 1011.21 1010.94 1010.37 1010.65 1010.73 1010.70 1009.91 1009.56 1009.22 1008.64 1007.94 1007.74 1007.59 1007.37 1006.64 1006.38 1006.51 1006.46 1006.74 1004.42 1004.61 1003.97 1004.13 1003.70 1003.32 1002.90 1002.51 1002.21
1019.80 1019.38 1018.96 1018.44 1017.89 1017.31 1016.71 1016.19 1015.49 1014.97 1014.50 1014.49 1014.88 1014.93 1012.64 1011.33 1010.82 1010.28 1010.53 1009.98 1009.46 1009.85 1010.11 1009.70 1009.40 1008.78 1008.56 1008.14 1007.58 1007.12 1005.86 1005.97 1005.88 1005.91 1005.74 1005.52 1003.92 1003.98 1003.78 1003.64 1003.20 1002.87 1002.38 1001.97 1001.55
1019.58 1019.14 1018.69 1018.18 1017.59 1017.00 1016.33 1015.65 1014.68 1014.54 1014.32 1014.28 1014.14 1014.35 1011.79 1010.42 1009.89 1009.50 1009.41 1009.37 1009.04 1008.92 1009.59 1009.43 1008.60 1008.00 1007.49 1006.85 1004.58 1005.32 1005.36 1005.47 1005.31 1004.81 1005.01 1004.35 1003.77 1003.99 1003.17 1003.38 1002.56 1002.14 1001.68 1001.49 1001.18
1019.51 1019.05 1018.53 1017.98 1017.44 1016.94 1016.17 1015.45 1014.75 1014.55 1014.25 1013.55 1013.02 1012.01 1010.54 1009.56 1009.18 1008.79 1008.80 1009.04 1008.93 1007.87 1007.17 1007.54 1007.27 1004.85 1004.60 1004.64 1005.32 1004.96 1004.96 1004.51 1004.39 1004.57 1004.76 1003.91 1003.50 1003.16 1002.89 1002.66 1002.01 1001.40 1001.11 1000.88 1000.50
1019.22 1018.78 1018.24 1017.68 1017.21 1016.85 1016.44 1015.95 1016.20 1016.49 1014.52 1012.74 1011.83 1011.07 1010.13 1009.68 1009.07 1007.79 1008.24 1008.22 1007.70 1005.68 1006.34 1007.08 1004.17 1002.40 1004.50 1005.28 1005.35 1005.02 1004.48 1003.91 1004.32 1004.54 1004.64 1003.71 1002.96 1002.65 1002.15 1001.59 1001.24 1000.75 1000.34 1000.08 999.98
1018.82 1018.48 1018.07 1017.56 1017.05 1017.04 1016.75 1016.29 1016.20 1016.04 1014.92 1011.27 1010.03 1009.59 1009.32 1009.05 1008.74 1006.61 1007.27 1006.68 1006.22 1005.74 1004.16 1002.80 999.50 1003.08 1003.84 1003.99 1004.44 1004.16 1003.82 1003.94 1004.01 1004.50 1004.34 1003.76 1002.40 1001.74 1001.05 1001.02 1000.37 999.94 999.73 999.59 999.90
1018.59 1018.07 1017.62 1017.22 1016.95 1016.83 1016.23 1016.10 1016.09 1015.91 1014.28 1010.46 1009.09 1008.34 1008.14 1008.02 1007.58 1006.17 1005.87 1005.91 1005.19 1004.24 1004.04 1002.73 1001.67 1002.03 1002.65 1002.64 1003.82 1003.46 1004.08 1004.30 1004.62 1005.07 1003.65 1004.09 1001.43 1000.94 1000.80 999.99 999.44 998.92 998.89 999.19 999.68
1018.33 1017.73 1017.32 1017.04 1016.97 1016.33 1016.00 1015.97 1015.70 1015.58 1012.78 1009.00 1008.14 1007.29 1007.22 1007.42 1006.57 1004.45 1005.14 1005.14 1004.06 1003.46 1003.10 1000.51 1001.02 1001.53 1001.58 1001.35 1002.73 1002.28 1003.72 1004.08 1004.89 1004.81 1004.61 1003.83 1002.93 999.27 1000.42 999.31 998.34 997.88 998.16 998.90 999.94
1017.97 1017.36 1017.01 1016.58 1016.52 1015.96 1015.92 1015.83 1015.51 1014.76 1011.33 1008.55 1007.73 1007.24 1006.61 1006.42 1006.12 1005.24 1004.77 1004.95 1004.00 1003.50 1002.30 1001.13 1000.65 1000.73 999.63 1001.37 1001.94 1003.19 1003.66 1004.14 1004.40 1004.47 1003.65 1003.14 1002.99 997.08 998.68 998.32 997.47 997.19 997.68 998.97 999.84
1017.64 1016.96 1016.64 1016.44 1016.11 1016.18 1015.99 1015.50 1015.13 1013.19 1010.32 1009.19 1008.31 1007.65 1006.87 1006.54 1006.33 1005.77 1004.77 1004.55 1003.44 1002.98 1001.78 1001.33 1000.43 999.94 999.97 1000.54 1001.56 1002.50 1002.95 1002.99 1003.60 1003.25 1001.46 1002.08 1001.94 997.86 997.77 997.69 997.41 997.01 997.49 998.85 1000.09
1017.27 1016.56 1016.53 1016.15 1016.19 1016.20 1016.31 1015.72 1014.36 1011.99 1010.87 1009.79 1009.19 1008.01 1007.32 1007.24 1007.32 1007.03 1005.77 1004.59 1004.21 1002.95 1001.49 1000.62 1000.05 999.21 998.84 998.93 999.65 1000.39 1000.84 1000.50 1000.84 1000.67 1000.97 1001.20 999.86 997.08 996.92 996.31 996.44 996.82 997.44 998.90 1000.13
1016.94 1016.59 1016.32 1016.16 1016.21 1016.39 1016.34 1015.14 1013.31 1012.46 1011.87 1010.89 1009.57 1008.56 1008.19 1007.93 1007.81 1007.75 1007.33 1006.73 1004.95 1004.22 1003.18 1000.70 998.90 998.16 998.26 998.36 998.98 999.56 999.87 1000.46 1000.70 1000.83 1000.27 999.06 998.74 997.30 996.29 995.91 995.99 996.30 997.48 998.74 1000.06
1017.40 1016.98 1016.40 1016.16 1016.30 1016.52 1016.28 1014.88 1013.64 1012.83 1012.16 1011.42 1010.43 1009.55 1008.89 1008.50 1008.07 1007.80 1008.29 1008.14 1007.42 1006.44 1005.45 1002.42 999.91 998.17 998.12 998.23 998.02 997.75 999.49 1000.18 999.90 999.29 999.21 998.19 997.47 995.96 995.50 995.40 995.40 995.99 997.06 998.60 999.94
1017.58 1017.09 1016.47 1016.40 1016.53 1016.32 1015.91 1014.95 1013.86 1012.69 1012.21 1011.60 1010.70 1010.19 1009.68 1009.17 1008.58 1008.00 1007.87 1008.23 1008.61 1007.69 1006.02 1004.18 1001.55 998.61 997.77 996.42 996.18 997.77 998.14 998.20 998.52 998.57 997.81 997.43 996.40 995.52 994.76 994.67 994.99 995.55 996.82 998.17 999.54
1017.93 1017.33 1016.67 1016.42 1016.69 1016.41 1015.79 1015.02 1014.16 1012.87 1012.27 1011.59 1011.05 1010.57 1010.04 1009.57 1009.01 1008.38 1007.53 1007.55 1008.48 1008.68 1007.87 1005.94 1003.39 999.66 997.16 996.70 996.65 996.91 996.79 997.07 996.84 997.96 997.78 997.05 995.96 995.34 994.87 995.02 995.37 996.01 996.95 998.24 999.51
1018.40 1017.91 1016.95 1016.71 1016.96 1016.57 1015.92 1014.98 1014.23 1013.13 1012.62 1012.23 1011.27 1010.69 1010.18 1009.90 1009.52 1008.56 1007.80 1007.50 1008.02 1008.33 1008.53 1007.59 1004.19 1000.85 998.65 998.04 996.97 996.10 996.50 997.07 997.17 997.28 996.88 996.76 995.78 995.09 995.07 995.03 995.23 995.89 997.17 998.58 999.57
1018.81 1018.18 1017.51 1017.26 1017.60 1017.33 1016.50 1015.12 1014.24 1013.36 1012.75 1012.82 1011.72 1010.99 1010.44 1009.91 1009.44 1008.55 1007.79 1007.36 1007.65 1007.47 1008.03 1007.90 1005.53 1002.35 999.13 997.99 997.29 996.85 996.64 996.72 996.87 996.50 996.41 996.04 995.60 994.62 994.54 994.66 995.24 996.12 997.09 998.38 999.37
1019.14 1018.90 1018.55 1017.87 1017.31 1017.34 1016.93 1016.02 1014.79 1013.80 1013.31 1012.66 1012.05 1011.71 1011.24 1010.23 1009.48 1008.59 1008.10 1007.69 1007.32 1007.10 1007.61 1007.69 1005.96 1003.75 1001.27 1000.05 999.11 997.77 996.42 996.38 996.16 996.41 996.05 996.16 995.77 994.42 994.05 994.48 995.21 996.11 997.14 998.01 998.90
1019.33 1018.92 1018.41 1017.98 1017.45 1016.98 1016.55 1015.68 1015.06 1014.48 1014.01 1012.80 1012.27 1011.48 1011.34 1010.71 1009.93 1009.15 1008.72 1008.40 1008.00 1007.79 1007.54 1007.49 1006.31 1004.52 1001.37 1000.02 999.20 997.93 996.94 996.05 996.10 996.40 996.45 996.07 995.20 995.06 994.36 994.92 995.10 995.55 996.58 997.12 998.01
1019.42 1019.07 1018.87 1017.63 1017.03 1016.81 1016.17 1015.65 1015.22 1014.90 1013.42 1013.00 1012.66 1011.99 1010.94 1010.14 1009.68 1009.31 1009.03 1008.60 1008.21 1008.25 1007.87 1007.08 1006.26 1004.76 1001.40 1000.45 999.23 997.54 996.33 996.35 996.32 996.53 996.31 995.57 995.33 995.03 994.67 994.35 994.27 994.93 995.60 996.23 996.87
Thickness
5626 5628 5631 5631 5636 5638 5640 5645 5649 5654 5656 5660 5669 5678 5681 5689 5699 5714 5728 5742 5741 5742 5741 5742 5746 5750 5745 5741 5743 5735 5717 5725 5740 5744 5765 5771 5765 5769 5774 5766 5771 5782 5779 5781 5781
5617 5620 5622 5627 5630 5632 5634 5639 5642 5645 5651 5654 5660 5664 5671 5682 5691 5706 5742 5736 5736 5734 5735 5733 5733 5736 5731 5732 5733 5725 5716 5731 5761 5763 5761 5759 5759 5757 5755 5760 5771 5775 5781 5777 5774
5614 5617 5621 5625 5623 5626 5629 5633 5636 5640 5643 5647 5652 5657 5664 5671 5685 5714 5730 5731 5727 5728 5734 5735 5729 5730 5722 5725 5730 5728 5716 5749 5753 5758 5752 5753 5756 5755 5751 5753 5778 5766 5774 5778 5772
5607 5610 5611 5612 5618 5622 5621 5625 5628 5633 5636 5640 5646 5648 5657 5662 5677 5711 5718 5722 5726 5726 5721 5719 5715 5711 5714 5713 5736 5718 5726 5738 5754 5748 5740 5743 5750 5747 5745 5759 5780 5774 5771 5774 5772
5600 5601 5603 5605 5606 5610 5616 5616 5621 5622 5627 5629 5633 5637 5647 5655 5679 5700 5706 5709 5713 5714 5710 5711 5708 5714 5710 5720 5720 5716 5725 5734 5738 5738 5735 5742 5737 5741 5749 5770 5775 5770 5769 5767 5768
5592 5593 5595 5597 5600 5603 5605 5610 5615 5617 5618 5619 5621 5623 5629 5638 5681 5685 5685 5690 5695 5697 5698 5699 5704 5716 5709 5708 5714 5731 5718 5723 5726 5729 5739 5732 5741 5728 5754 5768 5767 5760 5759 5765 5767
5583 5584 5585 5588 5590 5592 5596 5600 5601 5605 5610 5608 5610 5613 5626 5653 5665 5672 5668 5670 5675 5681 5685 5693 5698 5691 5701 5698 5712 5712 5699 5708 5708 5725 5726 5735 5718 5728 5757 5758 5744 5745 5755 5759 5767
5575 5575 5576 5577 5579 5582 5585 5587 5592 5598 5601 5601 5601 5605 5625 5645 5651 5657 5659 5665 5664 5670 5672 5681 5686 5684 5683 5696 5694 5692 5691 5685 5715 5721 5723 5718 5708 5739 5758 5741 5735 5741 5745 5751 5759
5563 5562 5562 5562 5564 5566 5569 5572 5579 5584 5589 5592 5592 5594 5617 5631 5643 5648 5651 5656 5660 5660 5662 5668 5668 5669 5673 5669 5673 5675 5679 5684 5701 5716 5720 5714 5715 5736 5747 5735 5729 5735 5741 5747 5755
5550 5550 5549 5548 5548 5549 5553 5557 5565 5565 5568 5569 5577 5581 5610 5624 5631 5639 5644 5645 5649 5650 5645 5648 5655 5656 5665 5665 5669 5678 5674 5682 5685 5719 5712 5713 5711 5722 5739 5728 5731 5733 5741 5746 5753
5532 5529 5526 5523 5523 5524 5529 5533 5544 5545 5544 5556 5564 5578 5596 5607 5617 5624 5629 5628 5634 5643 5646 5649 5643 5662 5678 5687 5685 5690 5681 5689 5702 5711 5699 5709 5708 5719 5731 5729 5729 5736 5742 5748 5757
5513 5508 5504 5500 5498 5495 5496 5497 5488 5488 5512 5530 5541 5555 5570 5580 5588 5607 5613 5616 5623 5644 5647 5628 5651 5696 5687 5674 5668 5674 5676 5682 5692 5702 5692 5703 5700 5716 5726 5732 5733 5739 5747 5755 5764
5494 5488 5482 5477 5474 5468 5466 5466 5462 5462 5473 5525 5526 5536 5543 5550 5561 5593 5597 5607 5620 5623 5644 5655 5704 5684 5671 5669 5660 5667 5669 5679 5680 5687 5691 5686 5691 5710 5731 5731 5739 5748 5756 5762 5762
5474 5468 5464 5461 5459 5452 5455 5450 5446 5447 5460 5512 5511 5516 5521 5528 5545 5573 5588 5595 5607 5622 5633 5648 5679 5667 5662 5662 5661 5656 5674 5672 5669 5658 5666 5680 5667 5705 5717 5724 5737 5751 5758 5761 5762
5457 5454 5451 5445 5444 5445 5442 5437 5436 5438 5466 5505 5492 5505 5512 5511 5526 5560 5568 5576 5595 5613 5625 5657 5655 5653 5656 5670 5672 5670 5669 5661 5655 5653 5651 5667 5653 5715 5709 5716 5737 5755 5762 5761 5753
5448 5445 5443 5439 5434 5434 5429 5426 5429 5438 5452 5489 5489 5493 5506 5509 5513 5537 5548 5559 5585 5594 5622 5642 5659 5659 5679 5671 5672 5665 5654 5648 5652 5653 5633 5663 5663 5724 5719 5723 5741 5757 5764 5752 5750
5438 5437 5434 5429 5429 5420 5417 5419 5423 5431 5475 5474 5477 5486 5496 5498 5501 5514 5529 5538 5562 5571 5598 5619 5637 5657 5664 5656 5660 5650 5641 5628 5624 5631 5647 5678 5665 5710 5730 5733 5741 5753 5758 5750 5743
5431 5431 5425 5421 5414 5406 5402 5409 5410 5451 5456 5465 5466 5481 5486 5490 5486 5491 5511 5530 5548 5576 5599 5607 5613 5644 5662 5662 5660 5659 5658 5651 5633 5645 5651 5677 5667 5713 5738 5750 5753 5756 5757 5747 5740
5428 5424 5419 5413 5404 5397 5395 5404 5427 5432 5436 5440 5460 5469 5474 5479 5480 5482 5492 5498 5535 5552 5565 5603 5623 5654 5660 5670 5668 5657 5643 5670 5657 5654 5662 5684 5690 5723 5740 5744 5747 5754 5751 5745 5737
5420 5415 5413 5407 5401 5396 5393 5408 5418 5427 5430 5436 5440 5456 5458 5469 5475 5480 5473 5477 5490 5516 5535 5579 5602 5642 5649 5660 5668 5667 5672 5644 5654 5644 5639 5673 5686 5713 5733 5739 5749 5753 5749 5741 5735
5415 5412 5407 5400 5398 5400 5399 5409 5416 5428 5428 5426 5434 5439 5448 5456 5468 5478 5487 5485 5471 5495 5530 5559 5588 5624 5640 5652 5659 5652 5650 5659 5666 5665 5662 5662 5688 5732 5743 5745 5750 5757 5751 5742 5736
5409 5409 5402 5398 5397 5395 5405 5412 5415 5424 5428 5427 5429 5434 5440 5450 5456 5469 5484 5487 5480 5481 5493 5529 5559 5602 5638 5657 5670 5667 5669 5674 5669 5651 5670 5678 5693 5729 5738 5741 5745 5749 5746 5742 5737
5406 5399 5398 5394 5395 5400 5407 5414 5418 5424 5423 5416 5428 5436 5442 5443 5443 5462 5478 5488 5484 5482 5476 5497 5551 5588 5611 5628 5652 5659 5667 5667 5669 5668 5664 5664 5685 5729 5731 5737 5746 5747 5740 5734 5732
5408 5406 5402 5397 5389 5391 5395 5413 5417 5430 5426 5414 5427 5435 5439 5442 5450 5458 5473 5487 5488 5497 5489 5488 5524 5570 5615 5630 5641 5642 5652 5661 5661 5662 5667 5675 5693 5726 5732 5736 5743 5741 5739 5734 5731
5406 5402 5397 5395 5400 5392 5395 5401 5412 5420 5423 5425 5426 5423 5422 5435 5443 5455 5468 5477 5487 5498 5493 5487 5517 5549 5580 5594 5608 5627 5652 5657 5657 5666 5662 5676 5685 5718 5732 5735 5740 5738 5735 5733 5730
5412 5408 5406 5401 5403 5402 5398 5410 5412 5410 5411 5422 5425 5432 5425 5420 5435 5441 5452 5460 5461 5479 5492 5489 5512 5537 5577 5602 5609 5619 5639 5658 5661 5664 5667 5678 5693 5714 5728 5727 5732 5735 5734 5736 5733
5411 5409 5403 5413 5413 5405 5407 5408 5406 5405 5423 5424 5418 5416 5426 5435 5438 5442 5444 5452 5460 5460 5474 5499 5507 5527 5580 5587 5603 5618 5644 5648 5657 5663 5673 5675 5695 5710 5715 5725 5736 5738 5739 5740 5740